Weather history for 0507

Weather History For Prescott AZ

This page updates 5 minutes after midnight. GMT -7

Station: KPRC0 Rows: 26

Return to today's weather
Year Date Temp (°F) Tmin (°F) Tmax (°F) RH% Prcp Snow Wind Gust Pres Sun Cloud
2000 2000-05-07 67.5 57.9 75.9 28 21.3 29.80 2
2001 2001-05-07 67.3 46.9 84.0 26 9.9 30.01 0
2002 2002-05-07 61.0 44.6 73.4 24 18.0 29.75 0
2003 2003-05-07 56.1 32 21.2 29.69 1
2004 2004-05-07 67.3 50.0 82.4 23 11.5 29.98 0
2005 2005-05-07 51.4 37.0 62.1 50 0.0 9.9 29.87 2
2006 2006-05-07 63.9 46.9 78.1 27 0.0 11.3 29.81 1
2007 2007-05-07 58.3 39.9 73.0 28 0.0 6.4 29.95 1
2008 2008-05-07 58.3 43.0 72.0 42 0.0 15.2 29.83 0
2009 2009-05-07 71.6 54.0 86.0 25 13.5 29.82 0
2010 2010-05-07 60.1 41.0 75.9 26 0.0 10.2 29.90 0
2011 2011-05-07 66.7 51.1 80.1 18 0.0 17.5 29.77 0
2012 2012-05-07 57.7 41.0 72.0 19 0.0 12.2 29.83 1
2013 2013-05-07 52.9 42.1 64.0 56 15.0 29.87
2014 2014-05-07 49.5 37.0 60.1 39 15.9 29.73
2015 2015-05-07 54.0 37.9 64.9 43 0.0 18.4 29.71 1
2016 2016-05-07 49.5 43.0 57.9 65 11.9 29.85
2017 2017-05-07 52.0 41.0 59.0 50 20.9 29.71
2018 2018-05-07 70.3 57.0 84.0 18 0.0 15.0 29.94 0
2019 2019-05-07 50.4 42.1 61.0 68 10.5 29.85
2020 2020-05-07 68.7 48.9 84.9 18 0.0 13.1 29.86 0
2021 2021-05-07 65.7 50.0 77.0 23 0.0 18.2 29.84 0
2022 2022-05-07 67.6 52.0 79.0 23 0.0 21.1 29.72 0
2023 2023-05-07 57.7 42.1 70.0 32 0.0 14.0 29.91 0
2024 2024-05-07 59.5 42.1 73.9 21 0.0 18.4 29.76 0
2025 2025-05-07 52.5 46.9 60.1 78 1.2 6.8 29.98 4
Average Low 45.4
Average High 72.4

Daily High / Low by Year (05/07)

Barometric Pressure by Year (05/07)

Weather data provided by Meteostat